• In Romania
  • List of Countries
  • For 7 days
  • Water Temperature
  • Satellite Maps
  • Weather Map
  • Weather Widgets
  • user-avatar
    Login

    Hourly Weather Salta

    Today, 27 July, Thursday

    Time Temperature Precipitation Wind Pressure Humidity
    00:00 +16°C° 0 mm 1 mps 653 mmHg 74%
    01:00 +16°C° 0 mm 1 mps 653 mmHg 72%
    02:00 +16°C° 0 mm 1 mps 653 mmHg 70%
    03:00 +16°C° 0 mm 1 mps 653 mmHg 68%
    04:00 +16°C° 0 mm 1 mps 653 mmHg 66%
    05:00 +16°C° 0 mm 1 mps 652 mmHg 64%
    06:00 +16°C° 0 mm 1 mps 653 mmHg 62%
    07:00 +18°C° 0 mm 1 mps 653 mmHg 59%
    08:00 +18°C° 0 mm 2 mps 654 mmHg 56%
    09:00 +20°C° 0 mm 2 mps 654 mmHg 52%
    10:00 +21°C° 0 mm 2 mps 654 mmHg 49%
    11:00 +24°C° 0 mm 2 mps 654 mmHg 46%
    12:00 +25°C° 0 mm 2 mps 654 mmHg 44%
    13:00 +26°C° 0 mm 3 mps 654 mmHg 42%
    14:00 +27°C° 0 mm 3 mps 654 mmHg 40%
    15:00 +27°C° 0 mm 3 mps 653 mmHg 43%
    16:00 +26°C° 0 mm 3 mps 653 mmHg 47%
    17:00 +25°C° 0 mm 3 mps 652 mmHg 50%
    18:00 +23°C° 0 mm 2 mps 652 mmHg 57%
    19:00 +21°C° 0 mm 1 mps 652 mmHg 64%
    20:00 +19°C° 0 mm 1 mps 651 mmHg 70%
    21:00 +19°C° 0 mm 1 mps 651 mmHg 68%
    22:00 +19°C° 0 mm 1 mps 651 mmHg 66%
    23:00 +18°C° 0 mm 1 mps 651 mmHg 64%

    Tomorrow, 28 July, Friday

    Time Temperature Precipitation Wind Pressure Humidity
    00:00 +18°C° 0 mm 1 mps 651 mmHg 61%
    01:00 +18°C° 0 mm 1 mps 651 mmHg 58%
    02:00 +18°C° 0 mm 1 mps 651 mmHg 55%
    03:00 +18°C° 0 mm 1 mps 650 mmHg 53%
    04:00 +16°C° 0 mm 2 mps 650 mmHg 51%
    05:00 +16°C° 0 mm 2 mps 650 mmHg 49%
    06:00 +17°C° 0 mm 2 mps 651 mmHg 47%
    07:00 +18°C° 0 mm 1 mps 651 mmHg 45%
    08:00 +19°C° 0 mm 1 mps 651 mmHg 43%
    09:00 +20°C° 0 mm 2 mps 652 mmHg 37%
    10:00 +24°C° 0 mm 2 mps 653 mmHg 32%
    11:00 +27°C° 0 mm 2 mps 653 mmHg 27%
    12:00 +27°C° 0 mm 2 mps 653 mmHg 26%
    13:00 +28°C° 0 mm 3 mps 653 mmHg 26%
    14:00 +29°C° 0 mm 3 mps 652 mmHg 25%
    15:00 +28°C° 0 mm 3 mps 652 mmHg 28%
    16:00 +27°C° 0 mm 3 mps 651 mmHg 32%
    17:00 +26°C° 0 mm 2 mps 651 mmHg 35%
    18:00 +24°C° 0 mm 2 mps 651 mmHg 41%
    19:00 +21°C° 0 mm 2 mps 651 mmHg 46%
    20:00 +20°C° 0 mm 1 mps 651 mmHg 52%
    21:00 +19°C° 0 mm 1 mps 651 mmHg 51%
    22:00 +19°C° 0 mm 1 mps 651 mmHg 50%
    23:00 +18°C° 0 mm 1 mps 651 mmHg 48%

    Day after tomorrow, 29 July, Saturday

    Time Temperature Precipitation Wind Pressure Humidity
    00:00 +18°C° 0 mm 1 mps 650 mmHg 46%
    01:00 +18°C° 0 mm 1 mps 650 mmHg 43%
    02:00 +17°C° 0 mm 2 mps 650 mmHg 40%
    03:00 +16°C° 0 mm 2 mps 650 mmHg 39%
    04:00 +16°C° 0 mm 2 mps 650 mmHg 38%
    05:00 +16°C° 0 mm 2 mps 649 mmHg 37%
    06:00 +17°C° 0 mm 2 mps 650 mmHg 35%
    07:00 +18°C° 0 mm 1 mps 651 mmHg 33%
    08:00 +19°C° 0 mm 1 mps 652 mmHg 32%
    09:00 +22°C° 0 mm 1 mps 653 mmHg 28%
    10:00 +25°C° 0 mm 1 mps 654 mmHg 25%
    11:00 +27°C° 0 mm 2 mps 654 mmHg 21%
    12:00 +28°C° 0 mm 2 mps 654 mmHg 22%
    13:00 +28°C° 0 mm 2 mps 654 mmHg 22%
    14:00 +29°C° 0 mm 2 mps 653 mmHg 22%
    15:00 +28°C° 0 mm 2 mps 653 mmHg 26%
    16:00 +27°C° 0 mm 2 mps 653 mmHg 29%
    17:00 +26°C° 0 mm 2 mps 652 mmHg 33%
    18:00 +24°C° 0 mm 2 mps 652 mmHg 41%
    19:00 +22°C° 0 mm 1 mps 652 mmHg 48%
    20:00 +20°C° 0 mm 1 mps 652 mmHg 56%
    21:00 +19°C° 0 mm 1 mps 653 mmHg 58%
    22:00 +19°C° 0 mm 1 mps 653 mmHg 59%
    23:00 +19°C° 0 mm 1 mps 653 mmHg 60%

    30 July, Sunday

    Time Temperature Precipitation Wind Pressure Humidity
    00:00 +18°C° 0 mm 1 mps 653 mmHg 60%
    01:00 +18°C° 0 mm 1 mps 653 mmHg 59%
    02:00 +18°C° 0 mm 1 mps 652 mmHg 59%
    03:00 +18°C° 0 mm 1 mps 652 mmHg 59%
    04:00 +16°C° 0 mm 1 mps 652 mmHg 58%
    05:00 +16°C° 0 mm 1 mps 652 mmHg 58%
    06:00 +18°C° 0 mm 1 mps 653 mmHg 55%
    07:00 +18°C° 0 mm 1 mps 653 mmHg 53%
    08:00 +19°C° 0 mm 1 mps 654 mmHg 51%
    09:00 +20°C° 0 mm 2 mps 655 mmHg 46%
    10:00 +23°C° 0 mm 2 mps 655 mmHg 42%
    11:00 +25°C° 0 mm 2 mps 656 mmHg 37%
    12:00 +25°C° 0 mm 3 mps 655 mmHg 37%
    13:00 +26°C° 0 mm 3 mps 655 mmHg 36%
    14:00 +27°C° 0 mm 3 mps 654 mmHg 36%
    15:00 +26°C° 0 mm 3 mps 654 mmHg 39%
    16:00 +25°C° 0 mm 3 mps 653 mmHg 43%
    17:00 +24°C° 0 mm 3 mps 653 mmHg 46%
    18:00 +21°C° 0 mm 3 mps 653 mmHg 53%
    19:00 +19°C° 0 mm 2 mps 653 mmHg 60%
    20:00 +19°C° 0 mm 1 mps 654 mmHg 67%
    21:00 +18°C° 0 mm 1 mps 654 mmHg 67%
    22:00 +18°C° 0 mm 1 mps 654 mmHg 68%
    23:00 +18°C° 0 mm 1 mps 654 mmHg 68%

    31 July, Monday

    Time Temperature Precipitation Wind Pressure Humidity
    00:00 +16°C° 0 mm 1 mps 653 mmHg 69%
    01:00 +16°C° 0 mm 1 mps 653 mmHg 70%
    02:00 +16°C° 0 mm 1 mps 653 mmHg 71%
    03:00 +15°C° 0 mm 1 mps 652 mmHg 73%
    04:00 +15°C° 0 mm 1 mps 652 mmHg 74%
    05:00 +14°C° 0 mm 1 mps 651 mmHg 76%
    06:00 +15°C° 0 mm 1 mps 652 mmHg 72%
    07:00 +15°C° 0 mm 1 mps 652 mmHg 68%
    08:00 +16°C° 0 mm 1 mps 652 mmHg 64%
    09:00 +18°C° 0 mm 2 mps 653 mmHg 56%
    10:00 +21°C° 0 mm 2 mps 653 mmHg 47%
    11:00 +24°C° 0 mm 2 mps 653 mmHg 39%
    12:00 +25°C° 0 mm 3 mps 653 mmHg 37%
    13:00 +26°C° 0 mm 3 mps 652 mmHg 35%
    14:00 +27°C° 0 mm 3 mps 651 mmHg 33%
    15:00 +26°C° 0 mm 3 mps 651 mmHg 36%
    16:00 +25°C° 0 mm 3 mps 651 mmHg 38%
    17:00 +24°C° 0 mm 3 mps 650 mmHg 41%
    18:00 +21°C° 0 mm 2 mps 650 mmHg 48%
    19:00 +19°C° 0 mm 2 mps 650 mmHg 56%
    20:00 +18°C° 0 mm 1 mps 650 mmHg 63%
    21:00 +18°C° 0 mm 1 mps 650 mmHg 62%
    22:00 +16°C° 0 mm 2 mps 650 mmHg 61%
    23:00 +16°C° 0 mm 2 mps 650 mmHg 60%

    1 August, Tuesday

    Time Temperature Precipitation Wind Pressure Humidity
    00:00 +16°C° 0 mm 2 mps 650 mmHg 58%
    01:00 +16°C° 0 mm 2 mps 650 mmHg 56%
    02:00 +16°C° 0 mm 2 mps 649 mmHg 54%
    03:00 +15°C° 0 mm 2 mps 649 mmHg 53%
    04:00 +15°C° 0 mm 2 mps 649 mmHg 52%
    05:00 +15°C° 0 mm 2 mps 648 mmHg 52%
    06:00 +15°C° 0 mm 2 mps 649 mmHg 50%
    07:00 +16°C° 0 mm 1 mps 649 mmHg 49%
    08:00 +16°C° 0 mm 1 mps 649 mmHg 47%
    09:00 +19°C° 0 mm 2 mps 649 mmHg 43%
    10:00 +21°C° 0 mm 2 mps 650 mmHg 40%
    11:00 +25°C° 0 mm 2 mps 650 mmHg 36%
    12:00 +26°C° 0 mm 3 mps 650 mmHg 34%
    13:00 +26°C° 0 mm 3 mps 649 mmHg 32%
    14:00 +27°C° 0 mm 3 mps 649 mmHg 30%
    15:00 +26°C° 0 mm 3 mps 649 mmHg 34%
    16:00 +24°C° 0 mm 3 mps 649 mmHg 39%
    17:00 +22°C° 0 mm 3 mps 649 mmHg 43%
    18:00 +20°C° 0 mm 3 mps 649 mmHg 51%
    19:00 +18°C° 0 mm 2 mps 649 mmHg 58%
    20:00 +15°C° 0 mm 2 mps 650 mmHg 66%
    21:00 +15°C° 0 mm 2 mps 650 mmHg 64%
    22:00 +15°C° 0 mm 2 mps 651 mmHg 62%
    23:00 +14°C° 0 mm 2 mps 651 mmHg 61%
    Show more